Time,TemperatureF,DewpointF,PressureIn,WindDirection,WindDirectionDegrees,WindSpeedMPH,WindSpeedGustMPH,Humidity,HourlyPrecipIn,Conditions,Clouds,dailyrainin,SoftwareType,DateUTC
2013-07-08 10:57:00,83.0,55.0,30.27,NW,313,2.0,-999.0,39,-99.99,,,-99.99,,2013-07-08 16:57:00,
2013-07-08 11:07:00,84.0,55.0,30.27,NW,312,1.0,-999.0,37,-99.99,,,-99.99,,2013-07-08 17:07:00,
2013-07-08 11:13:00,84.0,56.0,30.27,NW,320,1.0,-999.0,38,-99.99,,,-99.99,,2013-07-08 17:13:00,
2013-07-08 11:36:00,86.0,55.0,30.27,East,84,2.0,-999.0,35,-99.99,,,-99.99,,2013-07-08 17:36:00,
2013-07-08 11:45:00,87.0,55.0,30.27,SSW,198,3.0,-999.0,34,-99.99,,,-99.99,,2013-07-08 17:45:00,
2013-07-08 11:54:00,87.0,55.0,30.26,SE,133,3.0,-999.0,34,-99.99,,,-99.99,,2013-07-08 17:54:00,
2013-07-08 12:04:00,87.0,56.0,30.26,SSW,205,4.0,-999.0,35,-99.99,,,-99.99,,2013-07-08 18:04:00,
2013-07-08 12:18:00,88.0,55.0,30.25,South,182,4.0,-999.0,33,-99.99,,,-99.99,,2013-07-08 18:18:00,
2013-07-08 12:28:00,88.0,55.0,30.25,SE,135,4.0,-999.0,33,-99.99,,,-99.99,,2013-07-08 18:28:00,
2013-07-08 12:38:00,87.0,54.0,30.25,ESE,110,4.0,-999.0,33,-99.99,,,-99.99,,2013-07-08 18:38:00,
2013-07-08 12:46:00,87.0,55.0,30.25,West,273,3.0,-999.0,34,-99.99,,,-99.99,,2013-07-08 18:46:00,
2013-07-08 12:55:00,89.0,54.0,30.24,WSW,239,3.0,-999.0,31,-99.99,,,-99.99,,2013-07-08 18:55:00,
2013-07-08 13:17:00,91.0,54.0,30.22,SSW,210,2.0,-999.0,29,-99.99,,,-99.99,,2013-07-08 19:17:00,
2013-07-08 13:27:00,90.0,53.0,30.22,SE,143,5.0,-999.0,29,-99.99,,,-99.99,,2013-07-08 19:27:00,
2013-07-08 13:36:00,91.0,56.0,30.21,SW,217,4.0,-999.0,31,-99.99,,,-99.99,,2013-07-08 19:36:00,
2013-07-08 14:08:00,91.0,53.0,30.20,SSW,194,2.0,-999.0,28,-99.99,,,-99.99,,2013-07-08 20:08:00,
2013-07-08 14:26:00,94.0,53.0,30.18,WSW,245,2.0,-999.0,25,-99.99,,,-99.99,,2013-07-08 20:26:00,
2013-07-08 14:40:00,94.0,53.0,30.17,SW,235,2.0,-999.0,25,-99.99,,,-99.99,,2013-07-08 20:40:00,
2013-07-08 15:08:00,97.0,52.0,30.17,West,261,3.0,-999.0,22,-99.99,,,-99.99,,2013-07-08 21:08:00,
2013-07-08 15:17:00,97.0,52.0,30.16,WSW,238,4.0,-999.0,22,-99.99,,,-99.99,,2013-07-08 21:17:00,
2013-07-08 15:39:00,96.0,51.0,30.16,South,184,2.0,-999.0,22,-99.99,,,-99.99,,2013-07-08 21:39:00,
2013-07-08 15:40:00,96.0,51.0,30.16,NE,40,4.0,-999.0,22,-99.99,,,-99.99,,2013-07-08 21:40:00,
2013-07-08 15:47:00,96.0,50.0,30.16,NW,313,3.0,-999.0,21,-99.99,,,-99.99,,2013-07-08 21:47:00,
2013-07-08 16:09:00,96.0,51.0,30.16,NE,40,4.0,-999.0,22,-99.99,,,-99.99,,2013-07-08 22:09:00,
2013-07-08 16:19:00,96.0,51.0,30.16,NE,40,4.0,-999.0,22,-99.99,,,-99.99,,2013-07-08 22:19:00,
2013-07-08 16:38:00,96.0,51.0,30.16,NE,40,4.0,-999.0,22,-99.99,,,-99.99,,2013-07-08 22:38:00,